[[{"header":{"parameterUnit":"m.s-1","parameterCategory":1,"la1":30.2991,"la2":30.254,"lo1":-89.0895,"lo2":-89.0444,"dy":0.0017,"dx":0.0017,"nx":28,"ny":28,"refTime":"2025-12-11T09:00:00:Z","depth":0,"parameterNumber":2,"parameterNumberName":"U-component_of_WINDS"},"data":[0,0,0,0,0,0,0,0,0,0,0,0,0,0,0,0,0,0,0,0,0,0,0,0,0,0,0,0,0,0,0,0,0,0,0,0,0,0,0,0,0,0,0,0,0,0,0,0,0,0,0,0,0,0,0,0,0,0,-2.5423,-2.5423,0,-2.5458,-2.5458,-2.5458,-2.5382,-2.538,-2.5377,-2.5375,-2.5413,-2.5416,-2.5419,0,0,0,0,0,0,0,0,0,0,0,0,0,-2.5291,-2.5294,-2.5423,-2.5423,-2.5423,-2.5457,-2.5458,-2.5458,-2.5383,-2.538,-2.5377,-2.5374,-2.5412,-2.5416,-2.542,0,0,0,0,0,0,0,0,0,0,0,0,0,-2.534,-2.5295,-2.5422,-2.539,-2.5387,-2.5457,-2.5458,-2.5459,-2.5383,-2.5379,-2.5376,-2.5372,-2.541,-2.5415,-2.542,-2.5525,0,0,-2.5435,-2.5437,0,0,0,0,0,0,0,0,-2.5337,-2.5345,-2.5394,-2.5392,-2.5389,-2.5412,-2.5425,-2.5481,-2.5384,-2.5385,-2.5375,-2.5371,-2.5416,-2.542,-2.5435,-2.5526,-2.5528,-2.5436,-2.5439,-2.5441,-2.5442,0,0,0,0,0,0,0,-2.5334,-2.5343,-2.5436,-2.5395,-2.5392,-2.5374,-2.5376,-2.5436,-2.5421,-2.5384,-2.5379,-2.5384,-2.5413,-2.543,-2.5435,-2.5529,-2.5436,-2.544,-2.5443,-2.5445,-2.5709,-2.5713,0,0,0,0,0,0,-2.5334,-2.534,-2.5435,-2.5437,-2.5353,-2.5379,-2.5382,-2.5408,-2.542,-2.5418,-2.5387,-2.538,-2.5423,-2.5429,-2.5436,-2.556,-2.5441,-2.5445,-2.5448,-2.5705,-2.571,-2.5714,0,0,0,0,0,0,-2.5332,-2.5344,-2.5434,-2.5387,-2.5398,-2.5385,-2.5415,-2.5411,-2.5427,-2.5422,-2.5419,-2.5407,-2.5421,-2.5429,-2.5503,-2.556,-2.5448,-2.5452,-2.57,-2.5706,-2.5712,-2.5809,0,0,0,0,0,0,-2.5328,-2.5343,-2.5383,-2.5389,-2.54,-2.5501,-2.5419,-2.5414,-2.5436,-2.5427,-2.5439,-2.5438,-2.5418,-2.5496,-2.5508,-2.5565,-2.5456,-2.5695,-2.5703,-2.571,-2.5801,-2.5818,-2.5832,0,0,0,0,0,-2.5324,-2.5409,-2.5385,-2.5397,-2.5449,-2.5504,-2.5511,-2.5486,-2.5441,-2.5481,-2.5477,-2.5437,-2.5552,-2.5504,-2.5517,-2.5577,-2.5691,-2.57,-2.5709,-2.5794,-2.5815,-2.5832,0,0,0,0,0,0,-2.541,-2.5409,-2.5383,-2.5472,-2.5489,-2.5491,-2.5541,-2.5509,-2.5539,-2.553,-2.5498,-2.5502,-2.5583,-2.5586,-2.5534,-2.5679,-2.5614,-2.5626,-2.5674,-2.5693,-2.5709,-2.5707,-2.546,0,0,0,0,0,-2.544,-2.5484,-2.548,-2.5559,-2.5569,-2.5554,-2.5576,-2.5556,-2.5572,-2.5579,-2.5581,-2.5599,-2.5638,-2.5666,-2.5702,-2.58,-2.5802,-2.5847,-2.5863,-2.5876,-2.5888,-2.5941,-2.5961,-2.5744,-2.5744,-2.5743,0,0,-2.5501,-2.5506,-2.5536,-2.5577,-2.5587,-2.5635,-2.556,-2.5613,-2.5648,-2.5587,-2.5658,-2.566,-2.5677,-2.5765,-2.5803,-2.577,-2.5948,-2.5888,-2.5898,-2.5903,-2.5952,-2.5973,-2.5992,-2.575,-2.5749,-2.5748,0,0,-2.5638,-2.5645,-2.5712,-2.5724,-2.574,-2.5729,-2.5745,-2.5753,-2.5752,-2.5821,-2.5777,-2.5818,-2.5887,-2.5902,-2.5919,-2.606,-2.6025,-2.6072,-2.6156,-2.6208,-2.6225,-2.624,-2.6293,-2.6311,-2.6083,-2.6084,-2.6084,0,-2.5712,-2.5781,-2.5751,-2.5807,-2.5827,-2.5773,-2.5841,-2.5854,-2.5882,-2.5898,-2.586,-2.5946,-2.5954,-2.6045,-2.6079,-2.6093,-2.6112,-2.6072,-2.6225,-2.624,-2.6254,-2.6303,-2.6323,-2.6089,-2.6089,-2.6088,-2.6087,0,-2.5873,-2.5921,-2.5973,-2.6001,-2.6027,-2.6089,-2.6069,-2.6098,-2.6075,-2.6068,-2.614,-2.6148,-2.6185,-2.6204,-2.6182,-2.6292,-2.6271,-2.623,-2.6165,-2.6281,-2.6327,-2.6345,-2.6098,-2.6096,-2.6094,-2.6092,0,0,-2.6067,-2.6076,-2.6096,-2.6109,-2.6122,-2.616,-2.6219,-2.6255,-2.6282,-2.6302,-2.6352,-2.6411,-2.6373,-2.6392,-2.6371,-2.6417,-2.653,-2.637,-2.6369,-2.6401,-2.6653,-2.6686,-2.6708,-2.6506,-2.6509,-2.6512,-2.6652,0,-2.6203,-2.6306,-2.628,-2.6382,-2.6427,-2.6376,-2.6428,-2.6442,-2.6437,-2.6475,-2.6468,-2.6512,-2.6457,-2.6468,-2.6511,-2.6507,-2.6581,-2.6496,-2.6554,-2.6556,-2.6554,-2.6732,-2.6767,-2.6899,-2.667,-2.6673,-2.6675,0,-2.6377,-2.6404,-2.6511,-2.6517,-2.6535,-2.6582,-2.6613,-2.6649,-2.6665,-2.6658,-2.6679,-2.6648,-2.6708,-2.664,-2.6722,-2.6665,-2.6687,-2.6689,-2.6693,-2.67,-2.6625,-2.6746,-2.694,-2.6961,-2.6703,-2.67,-2.6698,0,-2.6511,-2.6573,-2.6646,-2.6657,-2.6666,-2.6701,-2.6706,-2.6718,-2.6741,-2.6768,-2.6783,-2.6816,-2.6836,-2.6862,-2.6842,-2.6794,-2.6929,-2.6858,-2.6926,-2.6927,-2.6959,-2.6958,-2.7162,-2.6969,-2.6968,-2.6968,-2.6968,0,-2.6668,-2.6736,-2.6706,-2.6751,-2.6825,-2.6794,-2.6869,-2.6868,-2.6879,-2.6923,-2.688,-2.6922,-2.6892,-2.6932,-2.6916,-2.6988,-2.6996,-2.6993,-2.6988,-2.6998,-2.6999,-2.7014,-2.7005,-2.6973,-2.6972,-2.6971,-2.697,0,-2.6831,-2.6813,-2.6889,-2.6891,-2.6893,-2.6948,-2.695,-2.6992,-2.6982,-2.7039,-2.705,-2.7036,-2.7081,-2.7063,-2.711,-2.7099,-2.7192,-2.7174,-2.7187,-2.7183,-2.7253,-2.7247,-2.7476,-2.7505,-2.7291,-2.7293,-2.7295,0,-2.6934,-2.6985,-2.6992,-2.7018,-2.7026,-2.7069,-2.7092,-2.7063,-2.709,-2.7111,-2.715,-2.7191,-2.7222,-2.7296,-2.7291,-2.7327,-2.7311,-2.7389,-2.7317,-2.7325,-2.7315,-2.7314,-2.7319,-2.7405,-2.7407,-2.7409,-2.7411,0,-2.7118,-2.7107,-2.7142,-2.7175,-2.7204,-2.7228,-2.7248,-2.7272,-2.7244,-2.7276,-2.7321,-2.7345,-2.7393,-2.7435,-2.7467,-2.7473,-2.7439,-2.7433,-2.7451,-2.7463,-2.7469,-2.7469,-2.7229,-2.7429,-2.7427,-2.7425,-2.7425,-2.7424,-2.7256,-2.7299,-2.7311,-2.7352,-2.7364,-2.7384,-2.7424,-2.7419,-2.7456,-2.7492,-2.7473,-2.7526,-2.7539,-2.7578,-2.7589,-2.763,-2.76,-2.7626,-2.7633,-2.764,-2.765,-2.746,-2.7636,-2.7635,-2.7635,-2.7634,-2.7634,0,-2.7441,-2.7445,-2.7483,-2.7513,-2.7545,-2.7507,-2.7528,-2.7558,-2.7605,-2.762,-2.7651,-2.7703,-2.7743,-2.774,-2.7777,-2.7811,-2.7796,-2.7822,-2.7821,-2.7823,-2.7674,-2.7656,-2.7833,-2.7833,-2.7833,-2.7833,-2.7833,-2.7833,-2.7541,-2.7612,-2.7602,-2.768,-2.7683,-2.7735,-2.775,-2.7768,-2.7781,-2.7841,-2.7873,-2.787,-2.7879,-2.7916,-2.7951,-2.7949,-2.7966,-2.7998,-2.7991,-2.7853,-2.7833,-2.7814,-2.7797,-2.8001,-2.8002,-2.8136,-2.8138,-2.8139]},{"header":{"parameterUnit":"m.s-1","parameterCategory":1,"la1":30.2991,"la2":30.254,"lo1":-89.0895,"lo2":-89.0444,"dy":0.0017,"dx":0.0017,"nx":28,"ny":28,"refTime":"2025-12-11T09:00:00:Z","depth":0,"parameterNumber":3,"parameterNumberName":"V-component_of_WINDS"},"data":[0,0,0,0,0,0,0,0,0,0,0,0,0,0,0,0,0,0,0,0,0,0,0,0,0,0,0,0,0,0,0,0,0,0,0,0,0,0,0,0,0,0,0,0,0,0,0,0,0,0,0,0,0,0,0,0,0,0,-3.4991,-3.4992,0,-3.5061,-3.5062,-3.5063,-3.5027,-3.5025,-3.5023,-3.5022,-3.509,-3.5094,-3.5097,0,0,0,0,0,0,0,0,0,0,0,0,0,-3.4823,-3.4826,-3.4991,-3.4992,-3.4993,-3.5061,-3.5062,-3.5063,-3.5027,-3.5025,-3.5023,-3.5021,-3.5089,-3.5093,-3.5098,0,0,0,0,0,0,0,0,0,0,0,0,0,-3.4895,-3.4827,-3.4991,-3.4983,-3.4983,-3.5061,-3.5062,-3.5063,-3.5028,-3.5025,-3.5022,-3.502,-3.5088,-3.5093,-3.5098,-3.5186,0,0,-3.5115,-3.5117,0,0,0,0,0,0,0,0,-3.4891,-3.4901,-3.4984,-3.4984,-3.4984,-3.5033,-3.5028,-3.5104,-3.5029,-3.5011,-3.5022,-3.5018,-3.5073,-3.508,-3.5099,-3.519,-3.5192,-3.5115,-3.5118,-3.512,-3.5122,0,0,0,0,0,0,0,-3.4886,-3.4898,-3.5019,-3.4985,-3.4985,-3.4975,-3.4983,-3.5042,-3.5057,-3.5012,-3.501,-3.5019,-3.5073,-3.5094,-3.51,-3.5193,-3.5115,-3.512,-3.5123,-3.5125,-3.536,-3.5363,0,0,0,0,0,0,-3.4882,-3.4894,-3.5016,-3.5021,-3.493,-3.4981,-3.4989,-3.502,-3.5056,-3.5059,-3.5021,-3.5017,-3.5086,-3.5094,-3.5102,-3.5208,-3.512,-3.5125,-3.5128,-3.5357,-3.5361,-3.5364,0,0,0,0,0,0,-3.4878,-3.4893,-3.5014,-3.4957,-3.4971,-3.4987,-3.5022,-3.5023,-3.5044,-3.5063,-3.5065,-3.504,-3.5084,-3.5095,-3.5166,-3.521,-3.5128,-3.5133,-3.5353,-3.5358,-3.5362,-3.5421,0,0,0,0,0,0,-3.4874,-3.4892,-3.4926,-3.4958,-3.4975,-3.5077,-3.5024,-3.5026,-3.5053,-3.5048,-3.5081,-3.5084,-3.5083,-3.5158,-3.5171,-3.5216,-3.5137,-3.535,-3.5356,-3.5361,-3.5415,-3.5427,-3.5437,0,0,0,0,0,-3.4868,-3.4939,-3.4928,-3.4943,-3.5018,-3.508,-3.5089,-3.5088,-3.5057,-3.5091,-3.5103,-3.5083,-3.5203,-3.5166,-3.518,-3.5227,-3.5347,-3.5354,-3.5361,-3.541,-3.5424,-3.5437,0,0,0,0,0,0,-3.4911,-3.4943,-3.4931,-3.5016,-3.5046,-3.5074,-3.5117,-3.5103,-3.5142,-3.5135,-3.5131,-3.5138,-3.5213,-3.5227,-3.5185,-3.5314,-3.527,-3.528,-3.5303,-3.5316,-3.5327,-3.5323,-3.5141,0,0,0,0,0,-3.4931,-3.498,-3.5004,-3.5076,-3.5092,-3.5102,-3.5129,-3.5125,-3.5155,-3.5168,-3.5185,-3.5214,-3.5259,-3.5288,-3.533,-3.5416,-3.5423,-3.5456,-3.5467,-3.5475,-3.5484,-3.5531,-3.5546,-3.5387,-3.5387,-3.5387,0,0,-3.4972,-3.4995,-3.5026,-3.5085,-3.5108,-3.5158,-3.5113,-3.5167,-3.5204,-3.5175,-3.5244,-3.5258,-3.529,-3.537,-3.5405,-3.5384,-3.553,-3.5484,-3.5491,-3.5495,-3.554,-3.5555,-3.5569,-3.5391,-3.5391,-3.539,0,0,-3.5071,-3.5094,-3.5157,-3.5181,-3.5216,-3.5222,-3.5237,-3.5268,-3.5277,-3.5346,-3.5326,-3.5368,-3.5445,-3.5469,-3.5491,-3.56,-3.5583,-3.5614,-3.5671,-3.5717,-3.573,-3.5741,-3.578,-3.5794,-3.5622,-3.5623,-3.5623,0,-3.5117,-3.5193,-3.519,-3.5247,-3.5273,-3.5251,-3.5314,-3.5337,-3.5384,-3.5402,-3.5377,-3.5473,-3.5493,-3.5578,-3.5605,-3.5623,-3.564,-3.561,-3.5728,-3.5739,-3.575,-3.5787,-3.5802,-3.5626,-3.5626,-3.5625,-3.5625,0,-3.5247,-3.53,-3.5346,-3.5393,-3.5425,-3.5484,-3.549,-3.5522,-3.5515,-3.5524,-3.5594,-3.5618,-3.5664,-3.5684,-3.5677,-3.5768,-3.5754,-3.5729,-3.5684,-3.5769,-3.5804,-3.5818,-3.5631,-3.563,-3.5629,-3.5628,0,0,-3.5377,-3.5423,-3.544,-3.5461,-3.5499,-3.5539,-3.5596,-3.5643,-3.5671,-3.5703,-3.5752,-3.5817,-3.5795,-3.582,-3.5816,-3.5856,-3.5941,-3.5826,-3.5826,-3.5847,-3.6043,-3.6062,-3.6079,-3.5929,-3.5932,-3.5934,-3.604,0,-3.548,-3.5583,-3.5583,-3.5678,-3.5726,-3.5705,-3.5755,-3.5783,-3.5793,-3.5834,-3.5844,-3.5891,-3.5857,-3.5872,-3.5911,-3.5923,-3.5981,-3.5915,-3.5974,-3.5976,-3.5968,-3.6097,-3.6118,-3.6217,-3.6054,-3.6056,-3.6058,0,-3.5615,-3.5653,-3.5753,-3.5784,-3.5804,-3.585,-3.5893,-3.5933,-3.5963,-3.5967,-3.5996,-3.5986,-3.6043,-3.5997,-3.6076,-3.6032,-3.6056,-3.6065,-3.6069,-3.6075,-3.6023,-3.6107,-3.6248,-3.6263,-3.6079,-3.6078,-3.6076,0,-3.57,-3.5777,-3.5847,-3.5866,-3.5903,-3.5936,-3.5953,-3.5981,-3.6009,-3.6046,-3.6064,-3.6106,-3.613,-3.6162,-3.6164,-3.6129,-3.6244,-3.6197,-3.6249,-3.6249,-3.6275,-3.6273,-3.6422,-3.6289,-3.6288,-3.6288,-3.6288,0,-3.5816,-3.5878,-3.5886,-3.593,-3.5998,-3.5996,-3.6064,-3.6078,-3.6103,-3.6148,-3.6131,-3.6173,-3.6172,-3.6214,-3.6215,-3.6281,-3.6292,-3.6296,-3.6296,-3.6298,-3.6298,-3.6315,-3.6308,-3.6292,-3.6291,-3.629,-3.629,0,-3.5924,-3.5932,-3.6007,-3.6036,-3.6045,-3.6095,-3.6119,-3.616,-3.6168,-3.6225,-3.6238,-3.625,-3.6299,-3.6303,-3.6359,-3.636,-3.644,-3.6432,-3.6431,-3.6429,-3.6481,-3.6477,-3.6647,-3.6669,-3.652,-3.6522,-3.6523,0,-3.5998,-3.6045,-3.608,-3.611,-3.6129,-3.6176,-3.6205,-3.6205,-3.6235,-3.6274,-3.631,-3.6358,-3.6396,-3.6475,-3.6488,-3.6531,-3.6524,-3.6581,-3.6531,-3.6532,-3.6526,-3.6524,-3.6529,-3.6591,-3.6593,-3.6594,-3.6595,0,-3.6128,-3.613,-3.6173,-3.6218,-3.6253,-3.6288,-3.632,-3.6345,-3.6348,-3.6383,-3.6434,-3.6464,-3.6522,-3.657,-3.6612,-3.6628,-3.6612,-3.6611,-3.6625,-3.6629,-3.6626,-3.6629,-3.6458,-3.6607,-3.6606,-3.6605,-3.6604,-3.6604,-3.6222,-3.6263,-3.6295,-3.6343,-3.6368,-3.6399,-3.6439,-3.6452,-3.6495,-3.6543,-3.6539,-3.6596,-3.6625,-3.668,-3.6699,-3.6742,-3.6723,-3.6744,-3.6749,-3.6755,-3.6761,-3.6619,-3.675,-3.675,-3.6749,-3.6749,-3.6749,0,-3.6352,-3.6371,-3.6416,-3.6463,-3.6501,-3.6483,-3.6518,-3.6551,-3.6601,-3.663,-3.6669,-3.6727,-3.6773,-3.679,-3.6834,-3.6866,-3.686,-3.6878,-3.6876,-3.688,-3.6775,-3.6758,-3.6882,-3.6882,-3.6882,-3.6882,-3.6882,-3.6882,-3.6424,-3.6494,-3.65,-3.6581,-3.6599,-3.6655,-3.6677,-3.6705,-3.6728,-3.6795,-3.6833,-3.6844,-3.6868,-3.6915,-3.6956,-3.6959,-3.6977,-3.6998,-3.6999,-3.69,-3.6887,-3.6874,-3.6859,-3.7002,-3.7002,-3.71,-3.7101,-3.7102]}]]